Regional Weather Roundup
Issued by NWS

Home | Current Version | Previous Version | Graphics & Text | Print | Product List | Glossary On
Versions: 1 2 3 4 5 6 7 8 9 10 11 12 13 14 15 16 17 18 19 20 21 22 23 24 25 26 27 28 29 30 31 32 33 34 35 36 37 38 39 40 41 42 43 44 45 46 47 48 49 50
000
ASUS43 KDMX 310907
RWRIA

WEATHER ROUNDUP FOR IOWA
NATIONAL WEATHER SERVICE DES MOINES IA
300 AM CST SAT JAN 31 2015

NOTE: "FAIR" INDICATES FEW OR NO CLOUDS BELOW 12,000 FEET WITH NO
SIGNIFICANT WEATHER AND/OR OBSTRUCTIONS TO VISIBILITY.

* - THESE STATIONS ARE NOT NWS STATIONS...THUS NOT UNDER NWS
QUALITY CONTROL.  THEY ALSO DO NOT REPORT WEATHER SUCH
AS PRECIPITATION OR FOG.

IAZ001>003-012>014-020>022-031>034-043>046-311000-
   NORTHWEST IOWA

CITY           SKY/WX    TMP DP  RH WIND       PRES   REMARKS
CARROLL *      CLEAR     32  27  80 SW16      30.17S WCI  21
CHEROKEE *     CLEAR     28  27  93 S5        30.14F WCI  23
DENISON *      CLEAR     30  28  93 S6        30.16F WCI  24
LE MARS *      CLEAR     30  27  86 S7        30.14F WCI  23
ORANGE CITY *  CLEAR     27  25  93 CALM      30.11F
SHELDON *      CLEAR     28  27  93 S8        30.10F WCI  20
SIOUX CITY     MOCLDY    27  24  89 E6        30.15F WCI  20
SPENCER        CLEAR     27  23  85 SW7       30.13F WCI  19
STORM LAKE *   CLEAR     30  27  86 SW10      30.14F WCI  21
$$

IAZ055>058-069>071-079>083-090>094-311000-
   SOUTHWEST IOWA

CITY           SKY/WX    TMP DP  RH WIND       PRES   REMARKS
ATLANTIC *     CLEAR     32  25  74 S9        30.21S WCI  24
AUDUBON *      CLEAR     32  27  80 SW8       30.20F WCI  25
CLARINDA *     PTCLDY    30  25  80 S5        30.26F WCI  25
COUNCIL BLFS * CLEAR     34  28  80 S7        30.19F WCI  28
CRESTON *      CLEAR     30  23  74 SW8       30.23S WCI  23
HARLAN  *      PTCLDY    30  30 100 S9        30.23F WCI  22
LAMONI         MOCLDY    28  19  69 S13       30.24F WCI  17
RED OAK *      MOCLDY    30  23  74 CALM      30.23F
SHENANDOAH *   CLEAR     34  27  75 SW6       30.25S WCI  29
$$

IAZ047>049-059>061-072>074-084-311000-
   CENTRAL IOWA

CITY           SKY/WX    TMP DP  RH WIND       PRES   REMARKS
AMES           PTCLDY    26  19  74 S6        30.19F WCI  19
ANKENY *       CLEAR     28  19  69 S3        30.22F
CHARITON *     MOCLDY    30  21  69 SW9       30.24S WCI  22
DES MOINES     MOCLDY    28  19  69 S6        30.22F WCI  22
GRINNELL*      PTCLDY    27  19  74 S8        30.22F WCI  18
KNOXVILLE *    PTCLDY    28  19  69 SW12      30.21F WCI  18
MARSHALLTOWN   CLEAR     28  18  66 S10       30.19F WCI  19
PELLA *        MOCLDY    28  21  74 S7        30.24F WCI  21
PERRY *          N/A     27  25  93 S6        30.19F WCI  20
$$

IAZ004>006-015-016-023>025-035-036-311000-
   NORTH CENTRAL IOWA

CITY           SKY/WX    TMP DP  RH WIND       PRES   REMARKS
ALGONA *       CLEAR     27  25  93 SW10      30.14F WCI  17
CLARION *      CLEAR     25  23  93 S9        30.16F WCI  15
ESTHERVILLE    PTCLDY    28  23  81 SW8       30.11F WCI  20
FORT DODGE *   PTCLDY    27  21  80 S7        30.16F WCI  19
MASON CITY     CLEAR     27  21  78 SW13      30.15F WCI  16
FOREST CITY *  CLEAR     25  21  86 SW5       30.15S WCI  19
IOWA FALLS *     N/A     27  21  80 SW9       30.18S WCI  17
$$

IAZ007>011-017>019-026>030-037>042-050>054-066-311000-
   NORTHEAST IOWA

CITY           SKY/WX    TMP DP  RH WIND       PRES   REMARKS
CEDAR RAPIDS   CLEAR     23  19  85 S7        30.22F WCI  15
CHARLES CITY * CLEAR     21  18  86 S8        30.16F WCI  12
CLINTON *      CLEAR     19  16  86 S8        30.29F WCI   9
DECORAH *      CLEAR     25  16  68 SW7G13    30.15S WCI  17
DUBUQUE        CLEAR     20  15  81 SW13      30.20F WCI   7
MONTICELLO *   CLEAR     19  18  93 S5        30.22F WCI  13
OELWEIN *      CLEAR     19  16  86 S9        30.18F WCI   9
WATERLOO       CLEAR     23  17  78 S7        30.18F WCI  15
$$

IAZ064-065-067-068-078-311000-
   EAST CENTRAL IOWA

CITY           SKY/WX    TMP DP  RH WIND       PRES   REMARKS
DAVENPORT      CLEAR     25  17  72 SW9       30.26F WCI  15
IOWA CITY      CLEAR     23  19  85 S3        30.27F
MT. PLEASANT * PTCLDY    27  21  80 S6        30.28F WCI  20
MUSCATINE *    PTCLDY    25  21  86 S5        30.29F WCI  19
QUAD CITIES    PTCLDY    26  18  71 SW6       30.27F WCI  19
$$

IAZ062-063-075>077-085>089-095>099-311000-
   SOUTHEAST IOWA

CITY           SKY/WX    TMP DP  RH WIND       PRES   REMARKS
BURLINGTON     CLEAR     27  21  78 S6        30.29F WCI  20
FAIRFIELD *    CLEAR     27  19  74 S6        30.26F WCI  20
FORT MADISON * CLEAR     27  21  80 SW8       30.29F WCI  18
KEOKUK *       PTCLDY    25  21  86 S6        30.29F WCI  18
OSKALOOSA *      N/A     27  21  80 SW10      30.25F WCI  17
CENTERVILLE *  CLEAR     28  21  74 S8        30.27F WCI  20
OTTUMWA        PTCLDY    26  19  74 S9        30.24F WCI  17
WASHINGTON *   CLEAR     25  23  93 S8        30.26F WCI  16
$$

ABBREVIATIONS USED IN REMARKS
   TC - TEMPERATURES IN CELSIUS
  WCI - WIND CHILL INDEX
   HX - HEAT INDEX
  VSB - VISIBILITY
$$



USA.gov is the U.S. government's official web portal to all federal, state and local government web resources and services.